Время (UTC), дата Ветер
(°,м/с) 
Видим.   Явления Облачность Т
(°С)
Тd
(°С)
f(%) Тe
(°С)
Pmin
(гПа)
dP
(гПа)
Po
(мм)
O2
(г/м3)
Тmin Tmax R s Состояние
почвы
00 01.04.11 060 (СВ) 10 км    3/0 верхняя 
[Ci fib]
+3.8 +1.4 84 +2  1027.1  1.4  763  303           
03 01.04.11 050 (СВ) 10 км    5/0 средняя, верхняя 
[Ac trans|Ci fib]
+2.5 +0 84 1029  1.9  765  305           
06 01.04.11 070 (В) 10 км    4/0 верхняя 
[Ci fib]
+5 -1.4 63 +2  1030.8  1.8  766  303  +2.2         
09 01.04.11 080 (В) 10 км    ясно 
+9.4 -2.1 44 +7  1031  0.4  766  299           
12 01.04.11 080 (В) 10 км    ясно 
+10.8 -1.5 42 +11  1030.1  -0.9  765  297           
15 01.04.11 080 (В) 10 км    ясно 
+8.7 -4.6 39 +7  1029.9  -0.2  766  299           
18 01.04.11 090 (В) 10 км    4/0 верхняя 
[Ci fib]
+4.2 -4.8 52 +2  1031.5  1.4  767  305    +11.1       
21 01.04.11 080 (В) 10 км    ясно 
+1.7 -4 66 -1  1031.3  -0.4  766  307           
00 02.04.11 080 (В) 10 км    ясно 
+0.6 -3.3 75 -2  1030.6  -0.7  766  308           
03 02.04.11 080 (В) 10 км    3/0 верхняя 
[Ci fib]
-0.8 -3.7 81 -4  1031.3  0.6  766  310           
06 02.04.11 090 (В) 10 км    ясно 
+3.9 -3.1 60 1031.1  766  305  -0.8         
09 02.04.11 090 (В) 12-17{17}  10 км    3/0 верхняя 
[Ci fib]
+9.1 -3.4 41 +6  1028.9  -2  765  299           
12 02.04.11 090 (В) 10-15{17}  10 км    4/0 верхняя 
[Ci fib]
+11.7 -3.7 34 +10  1027.7  -1.1  764  296           
15 02.04.11 090 (В) 12-15{16}  10 км    8/0 верхняя 
[Ci fib]
+10.1 -2.4 41 +7  1026.8  -1  763  297           
18 02.04.11 080 (В) 10{16}  10 км    8/0 средняя, верхняя 
[Ac trans|Ci fib]
+6.1 -2.5 54 +3  1027  0.1  763  301    +11.7       
21 02.04.11 090 (В) 10  10 км    8/0 средняя, верхняя 
[Ac trans|Ci fib]
+4.5 -1.7 64 +1  1026.5  -0.5  763  303           
00 03.04.11 090 (В) 13-16{16}  10 км    10/4 300 м средняя 
[Sc|Ac trans]
+2.2 -2.9 69 -3  1024.6  -2  761  305           
03 03.04.11 090 (В) 12-17{18}  10 км    9/0 средняя, верхняя 
[Ac trans|Ci]
+0.8 -4.1 70 -4  1025.4  0.7  762  307           
06 03.04.11 090 (В) 12-17{18}  10 км    9/0 средняя 
[Ac trans]
+2.3 -3.3 66 -3  1025.6  0.3  762  305  +0.8         
09 03.04.11 090 (В) 14-18{19}  10 км    9/0 средняя 
[Ac trans]
+7.6 -3.7 45 +4  1024.5  -0.9  761  299           
12 03.04.11 090 (В) 16-20{21}  10 км    9/0 средняя 
[Ac trans]
+9.5 -4.7 36 +6  1024.4  761  297           
15 03.04.11 090 (В) 15-19{20}  10 км    9/3 600 м кучево-дожд., средняя 
[Cb calv|Ac und]
+9 -3.5 41 +5  1024.8  0.4  762  298           
18 03.04.11 090 (В) 10-15{20}  10 км    10/4 600 м кучево-дожд., средняя 
[Cb calv|Ac und]
+7.1 -4.4 44 +4  1026  1.1  763  300    +9.8       
21 03.04.11 090 (В) 11-16{16}  10 км    10/4 300 м средняя 
[Sc|Ac und]
+4.5 -3.2 57 1023.9  -2.1  761  302           
00 04.04.11 090 (В) 11{16}  10 км  в посл. час ливневой дождь  10/6 840 м кучево-дожд., средняя 
[Cb calv|Ac und]
+2.8 -0.7 78 -2  1023.6  -0.4  761  303           
03 04.04.11 090 (В) 11-16{18}  10 км    9/1 600 м кучево-дожд., средняя 
[Cb calv|Ac trans]
+3.4 -2.6 65 -1  1022.5  -1  760  303           
06 04.04.11 090 (В) 14-17{18}  10 км    9/0 средняя 
[Ac trans]
+5.7 -2.6 55 +1  1020.9  -1.6  759  300  +2.7    0.2     
09 04.04.11 100 (В) 14-19{19}  10 км    9/0 средняя 
[Ac trans]
+9.1 -2.9 43 +6  1019.3  -1.4  758  296           
12 04.04.11 100 (В) 14-20{20}  10 км    9/0 средняя, верхняя 
[Ac trans|Ci fib]
+11.7 -3.6 34 +9  1018  -1.2  757  293           
15 04.04.11 110 (В) 12-17{20}  10 км    9/0 средняя, верхняя 
[Ac trans|Ci fib]
+10.2 -1.3 45 +7  1017.9  -0.2  757  294           
18 04.04.11 110 (В) 13-17{20}  10 км    10/0 средняя 
[Ac und]
+7.8 -2.5 48 +4  1017.7  -0.3  756  297    +11.9       
21 04.04.11 100 (В) 10  10 км    10/0 средняя 
[Ac und]
+6.5 -5.5 42 +3  1016.3  -1.4  755  298           
00 05.04.11 090 (В) 7{17}  10 км    10/5 630 м средняя 
[Sc|Ac und]
+5.2 -4.6 49 +2  1015.6  -0.7  755  299           
03 05.04.11 080 (В) 10 км    10/10 1020 м 
[Sc]
+5.3 -3.6 53 +3  1014.6  -1  754  298           
06 05.04.11 090 (В) 10  10 км    10/0 средняя 
[Ac und]
+7.1 -4.3 44 +4  1014  -0.5  754  296  +5         
09 05.04.11 100 (В) 10{15}  10 км    10/3 600 м средняя 
[Sc|Ac und]
+9.1 -1.8 46 +6  1013.2  -0.8  753  294           
12 05.04.11 110 (В) 6{15}  10 км    10/0 средняя 
[Ac und]
+9.8 -0.5 49 +8  1012.5  -0.6  753  293           
15 05.04.11 070 (В) 10 км    10/0 средняя 
[Ac und]
+9 +0.3 54 +8  1012.2  -0.4  752  293           
18 05.04.11 010 (С) 10 км    10/0 средняя 
[Ac und]
+8.6 +0 55 +8  1011.9  -0.3  752  294    +9.9       
21 05.04.11 тихо ()   10 км    10/4 600 м средняя 
[Sc|Ac und]
+7.8 +2.2 68 +8  1010.3  -1.6  751  294           
00 06.04.11 210 (ЮЗ) 10 км    10/6 750 м средняя 
[Sc|Ac und]
+7.1 +1.3 67 +6  1009.8  -0.5  751  295           
03 06.04.11 220 (ЮЗ) 10 км    10/5 900 м средняя 
[Sc|Ac und]
+5.5 +3 84 +4  1009.6  -0.2  750  296           
06 06.04.11 180 (Ю) 4000 м  дымка  10/8 240 м средняя 
[Sc|Ac und]
+6 +4.1 88 +4  1010.4  0.8  751  295  +5.5         
09 06.04.11 210 (ЮЗ) 10 км  {дождь}  10/6 600 м средняя 
[Sc|Ac und]
+7.5 +3.7 77 +6  1010.5  0.1  751  294           
12 06.04.11 270 (З) 2000 м  слаб. дождь  10/6 360 м средняя 
[Sc|Ac und]
+5.8 +4.3 90 +5  1010.9  0.3  751  296           
15 06.04.11 230 (ЮЗ) 4000 м  слаб. дождь  10/8 420 м средняя 
[Sc|Ac und]
+6.2 +3.6 83 +4  1011.4  0.5  752  296           
18 06.04.11 220 (ЮЗ) 4000 м  дымка{дождь}  10/3 300 м средняя 
[St|Ac und]
+5.4 +2.7 83 +3  1012.2  0.6  752  297    +7.5  0.0     
21 06.04.11 230 (ЮЗ) 4000 м  дымка  10/0 средняя 
[Ac und]
+5.1 +3 86 +4  1011.2  -1  752  297           
00 07.04.11 240 (ЮЗ) 4000 м  дымка  10/0 средняя 
[Ac und]
+4.6 +2.8 88 +3  1010.5  -0.7  751  297           
03 07.04.11 250 (З) 4000 м  дымка  10/4 300 м средняя 
[Sc|Ac und]
+5.1 +2.8 85 +3  1009.5  -1  750  296           
06 07.04.11 290 (З) 4000 м  дымка  10/5 420 м средняя 
[Sc|Ac und]
+6.5 +2.6 76 +6  1009.4  750  295  +4.7    0.0     
09 07.04.11 280 (З) 10 км    8/4 300 м средняя 
[Sc|Ac trans]
+10.6 +2.3 56 +9  1008.4  -0.9  750  290           
12 07.04.11 260 (З) 10  10 км    5/0 средняя 
[Ac trans]
+12.7 +1.3 46 +11  1006.2  -2.1  748  288           
15 07.04.11 260 (З) 12-15{17}  4000 м  слаб. дождь  9/3 600 м средняя 
[Sc|Ac und]
+8.2 +4.5 78 +5  1006.3  748  292           
18 07.04.11 230 (ЮЗ) 8{17}  4000 м  слаб. ливневой дождь  10/8 210 м кучево-дожд., средняя 
[Cb calv|Ac und]
+7.2 +5.8 91 +5  1004.7  -1.6  747  292    +13  0.0     
21 07.04.11 240 (ЮЗ) 11-16{16}  2000 м  слаб. ливневой дождь  10/8 150 м кучево-дожд., средняя 
[Cb calv|Ac und]
+7.1 +6.2 94 +4  1002  -2.7  745  291           
00 08.04.11 240 (ЮЗ) 1000 м  дымка{ливн. осадки}  10/8 100 м кучево-дожд., средняя 
[Cb calv|Ac und]
+7.2 +6.5 95 +5  1000.8  -1.1  744  291           
03 08.04.11 220 (ЮЗ) 2000 м  дымка{дождь, туман}  10/10 120 м 
[St]
+8.3 +7.8 97 +6  998.6  -2.1  742  289           
06 08.04.11 220 (ЮЗ) 11-16{16}  2500 м  слаб. ливневой дождь  10/8 150 м кучево-дожд., средняя 
[Cb calv|As op]
+8.5 +7.6 94 +5  996.3  -2.3  741  288  +7.1       
09 08.04.11 230 (ЮЗ) 13-19{19}  4000 м  слаб. ливневой дождь  10/8 300 м кучево-дожд., средняя 
[Cb calv|Ac und]
+9 +6.9 87 +6  993.6  -2.7  739  287           
12 08.04.11 230 (ЮЗ) 15-20{20}  4000 м  слаб. ливневой дождь  10/8 300 м кучево-дожд., средняя 
[Cb calv|Ac und]
+8.8 +7.3 90 +5  992.2  -1.4  737  287           
15 08.04.11 260 (З) 4000 м  дымка{ливн. осадки}  10/8 270 м кучево-дожд., средняя 
[Cb calv|Ac und]
+6.5 +5.2 91 +3  992.5  0.2  738  289           
18 08.04.11 260 (З) 10 км  {ливн. осадки}  10/8 330 м средняя 
[Sc|Ac und]
+6.6 +4.9 89 +4  994.3  1.8  739  290    +9.1     
21 08.04.11 250 (З) 10 км    10/4 300 м средняя 
[Sc|Ac und]
+6 +3.7 85 +3  994.7  0.4  739  291           
00 09.04.11 240 (ЮЗ) 10 км    5/1 300 м средняя 
[Sc|Ac trans]
+4 +2.2 88 +2  994.5  -0.3  739  293           
03 09.04.11 220 (ЮЗ) 10 км    10/8 480 м средняя 
[Sc|Ac und]
+4.3 +2.9 91 +2  994.3  -0.1  739  293           
06 09.04.11 230 (ЮЗ) 10 км  слаб. ливневой дождь  10/8 360 м кучево-дожд., средняя 
[Cb calv|Ac und]
+6 +3.5 84 +3  993.8  -0.5  739  291  +3.9         
09 09.04.11 200 (Ю) 11-15{17}  4000 м  слаб. ливневой дождь  10/8 630 м кучево-дожд., средняя 
[Cb cap|Ac und]
+5.9 +4.3 89 +2  991.1  -2.7  737  290           
12 09.04.11 220 (ЮЗ) 17-22{22}  4000 м  слаб. ливневой дождь  10/8 330 м кучево-дожд., средняя 
[Cb calv|Ac und]
+5.8 +3.9 88 +1  990.3  -0.8  736  290           
15 09.04.11 230 (ЮЗ) 14-21{24}  4000 м  слаб. ливневой дождь  10/8 330 м кучево-дожд., средняя 
[Cb calv|Ac und]
+5.7 +4.3 91 +1  989.8  -0.5  736  290           
18 09.04.11 250 (З) 9{24}  10 км  слаб. ливневой дождь  10/8 300 м кучево-дожд., средняя 
[Cb calv|Ac und]
+6 +4.4 90 +3  990.3  0.5  736  289    +6.3     
21 09.04.11 260 (З) 10 км  {ливн. осадки}  9/5 200 м кучево-дожд., средняя 
[Cb calv|Ac trans]
+5.5 +3.6 87 +3  992.8  2.5  738  291           
00 10.04.11 250 (З) 10 км  {ливн. осадки}  9/5 540 м средняя 
[Sc|Ac trans]
+5.2 +3.2 87 +2  994.3  1.5  739  292           
03 10.04.11 260 (З) 10 км    8/5 480 м средняя 
[Sc|Ac trans]
+4.7 +2.4 85 +1  995  0.7  740  293           
06 10.04.11 260 (З) 10  10 км  слаб. дождь  9/6 540 м средняя 
[Sc|Ac trans]
+5.8 +2.5 79 +2  996.4  1.4  741  292  +4.5       
09 10.04.11 260 (З) 11-16{16}  10 км  {ливн. осадки, дождь}  9/6 600 м кучево-дожд., средняя 
[Cb calv|Ac trans]
+8.4 +1.8 63 +5  997.2  0.9  741  289           
12 10.04.11 260 (З) 10-15{17}  10 км  слаб. ливневой дождь  9/6 540 м кучево-дожд., средняя 
[Cb calv|Ac trans]
+6.3 +2.7 78 +3  998.9  1.6  742  292           
15 10.04.11 260 (З) 7{15}  10 км  слаб. ливневой дождь  10/8 400 м кучево-дожд., средняя 
[Cb calv|Ac und]
+6.1 +3.1 81 +3  1000  1.1  743  292           
18 10.04.11 250 (З) 4{15}  10 км  в посл. час ливневой дождь  9/5 300 м кучево-дожд., средняя 
[Cb calv|Ac trans]
+5.5 +2.2 79 +4  1001.7  1.6  744  294    +8.5  0.0     
21 10.04.11 240 (ЮЗ) 10 км    9/5 400 м средняя 
[Sc|Ac trans]
+4.1 +2 86 +3  1002.4  0.7  745  295           
00 11.04.11 230 (ЮЗ) 10 км    10/10 150 м 
[Sc]
+2.8 +1.9 94 +1  1002.8  0.2  745  297           
03 11.04.11 230 (ЮЗ) 4000 м  дымка  10/10 100 м 
[St]
+2.4 +1.9 96 1003.7  0.9  746  298           
06 11.04.11 230 (ЮЗ) 10 км    10/8 180 м средняя 
[St|Ac und]
+4.8 +3.3 90 +3  1004.4  0.8  746  295  +2.1    0.0     
09 11.04.11 250 (З) 10 км  в посл. час ливневой дождь [макс. диам. градин 2 мм]  9/6 800 м кучево-дожд., средняя 
[Cb calv|Ac trans]
+7.5 +0.1 59 +5  1004.6  0.3  747  293           
12 11.04.11 230 (ЮЗ) 10 км  слаб. ливневой дождь [макс. диам. градин 2 мм]  9/5 900 м кучево-дожд., верхняя 
[Cb calv|Ci]
+8.1 +0.4 58 +6  1005  0.4  747  292           
15 11.04.11 250 (З) 10 км  {ливн. осадки}  8/5 300 м кучево-дожд., верхняя 
[Cb calv|Ci fib]
+7.5 -0.1 58 +5  1006  0.9  748  293           
18 11.04.11 260 (З) 10 км  {ливн. осадки}  8/5 1000 м кучево-дожд., верхняя 
[Cb calv|Ci fib]
+5 +1.2 76 +4  1007.7  1.6  749  296    +9.6  0.0     
21 11.04.11 230 (ЮЗ) 10 км    3/3 300 м 
[Sc]
+2.5 +1.3 92 1008.4  0.7  749  299           
00 12.04.11 230 (ЮЗ) 4000 м  дымка  8/8 240 м 
[St]
+1.9 +1.2 95 1008.3  -0.2  749  300           
03 12.04.11 230 (ЮЗ) 10 км    9/5 120 м средняя 
[St|Ac trans]
+1.5 +0.9 96 +1  1008.6  0.3  749  300           
06 12.04.11 250 (З) 10 км    6/6 450 м 
[Sc]
+6.1 +2.5 78 +5  1009  0.6  750  295  +1.2    0.0     
09 12.04.11 250 (З) 10 км  в посл. час крупа{ливн. осадки} [макс. диам. градин 2 мм]  9/9 500 м кучево-дожд. 
[Cb calv]
+7.7 +3 72 +7  1009  750  293           
12 12.04.11 240 (ЮЗ) 10 км  слаб. ливневой дождь [макс. диам. градин 2 мм]  9/6 600 м кучево-дожд., средняя 
[Cb calv|Ac trans]
+7.2 +2.1 70 +5  1008.7  -0.3  750  294           
15 12.04.11 250 (З) 10 км  {ливн. осадки}  5/5 840 м кучево-дожд. 
[Cb calv]
+8.8 +0.6 56 +8  1008.9  0.3  750  293           
18 12.04.11 260 (З) 10 км  {ливн. осадки}  3/0 средняя 
[Ac trans]
+4.7 +0.9 76 +6  1010.7  1.6  751  297    +9.3  0.4     
21 12.04.11 тихо ()   10 км    ясно 
+2.4 +1.4 93 +2  1011.2  0.4  751  300           
00 13.04.11 290 (З) 3000 м  туман поземный  ясно 
+0.4 +0 97 1010.5  -0.7  751  302           
03 13.04.11 280 (З) 2000 м  дымка{туман}  9/9 60 м 
[Sc]
+2.1 +1.7 97 +1  1011.4  0.9  752  300           
06 13.04.11 250 (З) 4000 м  дымка{туман}  6/6 480 м 
[Sc]
+6.7 +2.3 73 +6  1012.2  752  296  -1.5         
09 13.04.11 260 (З) 10 км  слаб. ливневой дождь  8/8 800 м кучево-дожд. 
[Cb calv]
+8.4 +1.1 60 +7  1012.9  0.7  753  294           
12 13.04.11 280 (З) 10 км  {ливн. осадки}  4/3 1000 м средняя 
[Cu med, cong|Ac trans]
+10.6 +0.2 49 +9  1012.7  -0.1  753  292           
15 13.04.11 250 (З) 10 км    3/1 1000 м средняя 
[Cu med, cong|Ac trans]
+10.5 -2.2 41 +10  1013.1  0.4  753  292           
18 13.04.11 290 (З) 10 км    3/0 средняя 
[Ac trans]
+7 -1.6 54 +7  1014.7  1.4  754  296    +11.7  0.0     
21 13.04.11 250 (З) 10 км    3/0 средняя 
[Ac trans]
+3.8 +0.3 78 +5  1014.2  -0.7  754  299           
00 14.04.11 300 (СЗ) 10 км    ясно 
+5.4 +2.8 83 +6  1013.6  -0.5  753  297           
03 14.04.11 090 (В) 4000 м  местами туман поземный  8/0 средняя, верхняя 
[Ac trans|Ci fib]
+1.2 +0.5 95 +1  1013.3  -0.4  753  302           
06 14.04.11 160 (Ю) 10 км    9/4 1000 м кучево-дожд., средняя 
[Cb calv|Ac trans]
+7.9 +1.4 64 +7  1012.4  -0.7  752  294  +0.6         
09 14.04.11 190 (Ю) 10 км  {ливн. осадки}  10/3 1000 м кучево-дожд., средняя 
[Cb calv|Ac und]
+9.1 +1.2 58 +8  1011.9  -0.6  752  293           
12 14.04.11 180 (Ю) 10 км  {ливн. осадки}  8/1 1000 м кучево-дожд., средняя 
[Cb calv|Ac trans]
+11.6 +0.9 48 +11  1009.8  -2  751  290           
15 14.04.11 210 (ЮЗ) 10 км  слаб. ливневой дождь  8/4 1000 м кучево-дожд., средняя 
[Cb calv|Ac trans]
+13.1 +2.8 50 +14  1008.3  -1.4  750  288           
18 14.04.11 060 (СВ) 10 км  в посл. час ливневой дождь  8/3 1000 м кучево-дожд., средняя 
[Cb calv|Ac trans]
+10.1 +3.5 64 +10  1008  -0.4  749  291    +13.9  0.0     
21 14.04.11 060 (СВ) 10 км  {ливн. осадки}  8/1 1000 м кучево-дожд., средняя 
[Cb calv|Ac trans]
+8.1 +4.8 80 +7  1007.5  -0.5  749  292           
00 15.04.11 170 (Ю) 10 км  {ливн. осадки}  6/0 средняя 
[Ac trans]
+9 +3 66 +9  1006.5  -1  748  291           
03 15.04.11 100 (В) 10 км  слаб. ливневой дождь  10/4 1000 м кучево-дожд., средняя 
[Cb calv|Ac und]
+8.5 +4.2 74 +7  1006.4  -0.1  748  292           
06 15.04.11 210 (ЮЗ) 4000 м  слаб. ливневой дождь  10/8 240 м кучево-дожд., средняя 
[Cb calv|Ac und]
+9.4 +8 91 +8  1008.3  1.9  749  291  +6.3    0.4     
09 15.04.11 250 (З) 10 км  {ливн. осадки}  10/8 420 м кучево-дожд., средняя 
[Cb calv|Ac und]
+9.5 +6 79 +7  1010.1  1.8  751  291           
12 15.04.11 270 (З) 10 км  {ливн. осадки}  9/5 800 м средняя 
[Sc|Ac trans]
+11.8 +3 55 +10  1011  0.9  752  290           
15 15.04.11 260 (З) 10 км  в посл. час ливневой дождь  9/5 1000 м кучево-дожд., средняя 
[Cb calv|Ac trans]
+10.9 +4 62 +10  1011.2  0.3  752  291           
18 15.04.11 210 (ЮЗ) 10 км  {ливн. осадки}  5/0 средняя 
[Ac trans]
+7.3 +2.9 74 +7  1012.6  1.3  753  295    +11.8     
21 15.04.11 тихо ()   10 км    ясно 
+5.5 +2.5 81 +6  1012.5  -0.2  752  297           
00 16.04.11 260 (З) 10 км    ясно 
+4.1 +0.8 79 +4  1012.5  752  299           
03 16.04.11 тихо ()   10 км    9/1 600 м кучево-дожд., средняя 
[Cb calv|Ac trans]
+5.6 +1.8 76 +6  1011.8  -0.7  752  297           
06 16.04.11 150 (ЮВ) 10 км  слаб. ливневой дождь  9/4 600 м кучево-дожд., средняя 
[Cb calv|Ac trans]
+6 +3.9 86 +6  1012.5  0.7  752  296  +4.1         
09 16.04.11 180 (Ю) 10 км  в посл. час ливневой дождь  9/5 660 м кучево-дожд., средняя 
[Cb calv|Ac und]
+9 +6.3 83 +8  1011.8  -0.5  752  292           
12 16.04.11 270 (З) 10 км  слаб. ливневой дождь  9/5 750 м кучево-дожд., средняя 
[Cb calv|Ac trans]
+9.4 +6.6 83 +8  1011.7  -0.1  752  292           
15 16.04.11 260 (З) 10 км  {ливн. осадки}  10/5 750 м кучево-дожд., средняя 
[Cb calv|Ac und]
+9 +5 76 +7  1012.5  0.7  753  293           
18 16.04.11 250 (З) 10 км  слаб. ливневой дождь  10/6 360 м кучево-дожд., средняя 
[Cb calv|Ac und]
+7.6 +5.2 85 +5  1013.9  1.4  754  295    +10.2     
21 16.04.11 240 (ЮЗ) 4000 м  слаб. ливневой дождь  10/6 270 м кучево-дожд., средняя 
[Cb calv|Ac und]
+6.4 +4.6 88 +4  1013.9  -0.1  754  296           
00 17.04.11 250 (З) 4000 м  в посл. час ливневой дождь  10/6 270 м кучево-дожд., средняя 
[Cb calv|Ac und]
+5.3 +3.9 91 +4  1013.9  754  297           
03 17.04.11 270 (З) 10 км    9/6 420 м средняя 
[Sc|Ac trans]
+5 +2.7 85 +4  1015.2  1.3  755  298           
06 17.04.11 290 (З) 10 км  слаб. ливневой дождь  10/8 450 м кучево-дожд., средняя 
[Cb calv|Ac und]
+5.8 +2.8 81 +5  1017  1.8  756  298  +4.9    0.6     
09 17.04.11 330 (СЗ) 10 км  {ливн. осадки}  9/6 700 м кучево-дожд., средняя 
[Cb calv|Ac trans]
+10 +4.4 68 +10  1018.7  1.8  757  294           
12 17.04.11 310 (СЗ) 10 км  {ливн. осадки}  9/5 840 м кучево-дожд., средняя 
[Cb calv|Ac trans]
+9.9 +2.5 60 +9  1020.2  1.5  758  295           
15 17.04.11 260 (З) 10 км  в посл. час ливневой дождь  8/5 1000 м кучево-дожд., средняя 
[Cb calv|Ac trans]
+10.2 +3.5 63 +9  1020.9  0.7  759  294           
18 17.04.11 270 (З) 10 км  {ливн. осадки}  4/0 средняя 
[Ac trans]
+8 +3 71 +7  1022.3  1.3  760  297    +11.3     
21 17.04.11 270 (З) 10 км    3/0 средняя 
[Ac trans]
+7.2 +4.1 81 +6  1022.4  0.1  760  298           
00 18.04.11 270 (З) 4000 м  дымка  3/0 средняя 
[Ac trans]
+4.5 +2.9 89 +3  1021.7  -0.8  759  301           
03 18.04.11 240 (ЮЗ) 4000 м  дымка  9/0 средняя 
[Ac trans]
+4.8 +2.6 86 +4  1021.4  -0.4  759  300           
06 18.04.11 250 (З) 10 км    9/0 средняя 
[Ac trans]
+9.4 +4.2 70 +8  1021.1  -0.1  759  295  +3.9         
09 18.04.11 270 (З) 10 км    3/3 1000 м 
[Cu med, cong]
+13.3 +3 50 +13  1019.8  -1.2  758  291           
12 18.04.11 290 (З) 10 км    4/4 1000 м 
[Cu med, cong]
+14.2 +3.2 47 +14  1018.7  -1.1  757  290           
15 18.04.11 270 (З) 10 км    ясно 
+13.9 +3 48 +14  1016  -2.5  755  289           
18 18.04.11 270 (З) 10 км    3/0 верхняя 
[Ci fib]
+10.1 +2.8 60 +10  1015.7  -0.5  755  293    +15       
21 18.04.11 270 (З) 10 км    3/0 верхняя 
[Ci fib]
+9.3 +3.3 66 +9  1014.3  -1.4  754  293           
00 19.04.11 280 (З) 10 км    ясно 
+8.6 +3.5 70 +8  1012.9  -1.4  753  294           
03 19.04.11 260 (З) 10 км    6/0 средняя, верхняя 
[Ac trans|Ci fib]
+5.7 +3.5 86 +5  1011.6  -1.4  752  296           
06 19.04.11 260 (З) 10 км    ясно 
+13.6 +4.5 54 +13  1010.3  -1  751  288  +5.7         
09 19.04.11 260 (З) 10 км    ясно 
+17.5 +3.2 38 +17  1008.9  -1.3  750  284           
12 19.04.11 260 (З) 10 км    ясно 
+18.5 +3 36 +18  1007.2  -1.6  749  282           
15 19.04.11 270 (З) 10 км    4/0 средняя 
[Ac trans]
+17.5 +2.6 37 +18  1005.6  -1.6  748  283           
18 19.04.11 040 (СВ) 10 км    6/0 средняя 
[Ac trans]
+12.5 +4.1 56 +11  1006.8  748  288    +18.6       
21 19.04.11 050 (СВ) 10 км    8/0 средняя 
[Ac trans]
+9.8 +1.5 56 +9  1007.6  0.7  749  291           
00 20.04.11 010 (С) 10 км    10/3 1000 м кучево-дожд., средняя 
[Cb calv|Ac und]
+9.8 +1.2 55 +9  1007.1  -0.5  749  291           
03 20.04.11 010 (С) 10 км    10/3 1000 м кучево-дожд., средняя 
[Cb calv|Ac und]
+7.7 -3.4 45 +5  1007.4  0.2  749  294           
06 20.04.11 010 (С) 10 км    10/3 1000 м кучево-дожд., средняя 
[Cb calv|Ac und]
+7.5 -4.2 43 +5  1010  2.6  751  295  +7.2         
09 20.04.11 060 (СВ) 10 км    9/3 1000 м средняя 
[Cu med, cong|Ac trans]
+9.1 -4.1 39 +7  1011.4  1.4  752  294           
12 20.04.11 040 (СВ) 10 км    9/4 1000 м средняя 
[Cu med, cong|Ac trans]
+10.4 -7 29 +10  1011.9  0.6  752  293           
15 20.04.11 060 (СВ) 10 км  {ливн. осадки}  9/6 1000 м кучево-дожд., средняя 
[Cb calv|Ac und]
+8.7 -2.7 45 +9  1013.1  1.1  753  294           
18 20.04.11 280 (З) 10 км  {ливн. осадки}  8/0 средняя 
[Ac trans]
+6.7 +0 62 +5  1015.9  2.7  755  297    +10.5  0.0     
21 20.04.11 360 (С) 10 км    5/0 средняя 
[Ac trans]
+4.8 -4 53 +3  1017  1.1  756  300           
00 21.04.11 350 (С) 10 км    ясно 
+3.3 -3.4 61 +1  1017.9  0.9  756  302           
03 21.04.11 370 () 10 км    ясно 
+2.3 -2.9 68 1020  758  303           
06 21.04.11 030 (СВ) 10 км    1/0 средняя 
[Ac trans]
+7.5 -1.6 52 +6  1021.9  2.1  760  298  +2         
09 21.04.11 010 (С) 10 км    6/4 1000 м средняя 
[Cu hum|Ac trans]
+9.8 -5.8 33 +9  1022.9  1.1  760  296           
12 21.04.11 360 (С) 10 км    6/4 1000 м средняя 
[Cu med, cong|Ac trans]
+9.7 -5.3 34 +9  1024.1  1.1  761  297           
15 21.04.11 360 (С) 10 км    6/0 средняя 
[Ac trans]
+8.8 -5.9 35 +8  1024.9  0.8  762  298           
18 21.04.11 070 (В) 10 км    3/0 средняя 
[Ac trans]
+4.4 -5.6 48 +4  1026.8  1.7  763  303    +10.7       
21 21.04.11 тихо ()   10 км    ясно 
+4.3 -6.1 47 +4  1027.6  0.8  764  304           
00 22.04.11 050 (СВ) 10 км    1/0 средняя 
[Ac trans]
+0.9 -4.3 68 +2  1027.6  -0.1  764  307           
03 22.04.11 070 (В) 10 км    3/0 верхняя 
[Ci fib]
+2.6 -5.8 54 +2  1028.2  0.7  764  306           
06 22.04.11 100 (В) 10 км    ясно 
+8.6 -4.6 39 +8  1028.4  0.4  764  299  +0.8         
09 22.04.11 090 (В) 10 км    ясно 
+12 -6.4 27 +11  1027.2  -1.1  764  295           
12 22.04.11 080 (В) 10 км    ясно 
+13.9 -5.3 26 +13  1024.6  -2.5  762  293           
15 22.04.11 100 (В) 10 км    3/0 средняя 
[Ac trans]
+12.7 -6.7 25 +11  1023.9  -0.8  761  294           
18 22.04.11 060 (СВ) 10 км    3/0 средняя 
[Ac trans]
+6.6 -4 47 +5  1024.6  0.5  761  300    +14       
21 22.04.11 070 (В) 10 км    3/0 средняя 
[Ac trans]
+6.3 -3.2 51 +4  1023.8  -0.8  761  300           
00 23.04.11 080 (В) 10 км    3/0 средняя 
[Ac trans]
+4.1 -1.8 65 +2  1023.4  -0.4  761  302           
03 23.04.11 080 (В) 10 км    5/0 средняя, верхняя 
[Ac trans|Ci fib]
+3.8 -2.1 65 +2  1023.3  -0.1  761  302           
06 23.04.11 090 (В) 10 км    3/0 верхняя 
[Ci fib]
+10.9 -1.2 43 +9  1023.5  0.4  761  295  +2.1         
09 23.04.11 090 (В) 10 км    4/0 средняя, верхняя 
[Ac trans|Ci fib]
+14.1 -1.4 34 +13  1022.4  -1  760  291           
12 23.04.11 110 (В) 10 км    6/1 1000 м верхняя 
[Cu hum|Ci fib]
+16.1 -2.3 28 +15  1020.6  -1.7  759  289           
15 23.04.11 100 (В) 10 км    6/0 верхняя 
[Ci fib]
+14.8 -1.1 34 +14  1020.3  -0.4  758  290           
18 23.04.11 140 (ЮВ) 10 км    5/0 верхняя 
[Ci fib]
+8.9 +0.1 54 +8  1022.4  1.9  760  297    +16.6       
21 23.04.11 150 (ЮВ) 10 км    3/0 верхняя 
[Ci fib]
+6.5 +1.5 70 +6  1022.5  0.1  760  299           
00 24.04.11 110 (В) 10 км    3/0 средняя 
[Ac trans]
+5.1 +2.2 81 +6  1022.6  760  300           
03 24.04.11 000 (С) 41  <0100 м    1/0 <0100 м верхняя 
[Ci fib]
+2   1023.1  0.5  760             
06 24.04.11 тихо ()   10 км    6/0 верхняя 
[Ci fib]
+11.7 +2.6 54 +12  1023.3  0.4  761  294  +3.4         
09 24.04.11 070 (В) 10 км    6/0 верхняя 
[Ci fib]
+16.4 +0.4 34 +17  1022.2  -0.9  760  289           
12 24.04.11 110 (В) 10 км    8/3 1000 м верхняя 
[Cu med, cong|Ci fib]
+17.7 +0.3 31 +18  1021.2  -0.9  759  287           
15 24.04.11 120 (ЮВ) 10 км    8/0 средняя, верхняя 
[Ac trans|Ci]
+17.8 +0.3 31 +19  1020.9  -0.3  759  287           
18 24.04.11 250 (З) 10 км    6/0 средняя, верхняя 
[Ac trans|Ci fib]
+13.4 +0.1 40 +13  1022.3  1.3  760  292    +18.7       
00 25.04.11 320 (СЗ) 10 км    3/0 средняя 
[Ac trans]
+9.3 +3.8 68 +9  1022.6  -0.4  760  296           
03 25.04.11 230 (ЮЗ) 10 км    4/0 верхняя 
[Ci fib]
+7.2 +3.8 79 +8  1022.6  -0.1  760  298           
06 25.04.11 230 (ЮЗ) 10 км    4/0 верхняя 
[Ci fib]
+15 +4.1 48 +16  1022.8  0.4  760  290  +7         
09 25.04.11 100 (В) 10 км    4/3 1000 м верхняя 
[Cu med, cong|Ci fib]
+20.9 +1.7 28 +21  1021.7  -0.9  760  284           
12 25.04.11 070 (В) 10 км    5/3 1000 м средняя 
[Cu hum|Ac trans]
+22.2 -2.6 19 +22  1020  -1.6  758  283           
15 25.04.11 130 (ЮВ) 10 км    8/0 средняя, верхняя 
[Ac trans|Ci fib]
+19.9 +0.2 27 +21  1018.9  -1.2  758  284           
18 25.04.11 190 (Ю) 10 км    6/0 средняя, верхняя 
[Ac trans|Ci fib]
+15.4 -1.4 32 +17  1019.5  0.5  758  289    +22.3       
21 25.04.11 250 (З) 10 км    5/0 средняя, верхняя 
[Ac trans|Ci fib]
+14.2 +0.7 40 +15  1020  0.4  758  290           
00 26.04.11 240 (ЮЗ) 10 км    8/0 средняя, верхняя 
[Ac trans|Ci fib]
+12.7 +1.8 47 +13  1019.5  -0.5  758  292           
03 26.04.11 240 (ЮЗ) 10 км    9/0 средняя 
[Ac trans]
+12 +2 50 +12  1019.6  0.1  758  292           
06 26.04.11 210 (ЮЗ) 10 км    6/0 средняя 
[Ac trans]
+15.4 +4.3 47 +15  1020.6  1.1  759  289  +12         
09 26.04.11 170 (Ю) 10 км    6/0 верхняя 
[Ci fib]
+20.9 +2.7 30 +21  1019.9  -0.6  758  283           
12 26.04.11 060 (СВ) 10 км    6/3 1000 м верхняя 
[Cu hum|Ci fib]
+22.3 +2.3 27 +22  1018.8  -1  758  282           
15 26.04.11 120 (ЮВ) 10 км    5/0 верхняя 
[Ci fib]
+21.2 +1.2 26 +21  1018.6  -0.2  757  283           
18 26.04.11 140 (ЮВ) 10 км    8/0 средняя, верхняя 
[Ac trans|Ci fib]
+16.9 +1.3 35 +17  1020.3  1.6  759  288    +23.1       
21 26.04.11 110 (В) 10 км    4/0 верхняя 
[Ci fib]
+13.9 +2.3 45 +14  1021.5  1.1  759  291           
00 27.04.11 050 (СВ) 10 км    3/0 средняя 
[Ac trans]
+12.3 +2.9 53 +12  1022  0.5  760  293           
03 27.04.11 070 (В) 10 км    8/0 средняя, верхняя 
[Ac trans|Ci fib]
+10.3 +4.2 66 +9  1022.5  0.4  760  294           
06 27.04.11 080 (В) 10 км    8/0 средняя, верхняя 
[Ac trans|Ci]
+16.3 +5.8 50 +16  1023  0.7  761  288  +8.9         
09 27.04.11 090 (В) 10 км    8/0 верхняя 
[Ci]
+19.1 +5.3 40 +19  1022.1  -0.8  760  285           
12 27.04.11 100 (В) 10 км    9/9 1000 м 
+21.9 +3.7 30 +22  1020.3    759  282           
15 27.04.11 110 (В) 10 км    6/3 1000 м верхняя 
[Cu hum|Ci fib]
+19.9 +3.2 33 +20  1019.8  -0.6  758  284           
18 27.04.11 090 (В) 10 км    6/0 средняя 
[Ac trans]
+14 +3.1 48 +14  1020.5  0.5  759  290    +22.4       
21 27.04.11 050 (СВ) 10 км    4/0 средняя 
[Ac trans]
+11.7 +4.8 63 +11  1019.6  -0.9  758  292           
00 28.04.11 060 (СВ) 10 км    8/0 средняя 
[Ac trans]
+12.4 +5.1 61 +12  1018.3  -1.3  757  291           
03 28.04.11 070 (В) 10 км    6/0 средняя 
[Ac trans]
+12.4 +4.4 58 +12  1018.2  -0.1  757  291           
06 28.04.11 090 (В) 10 км    6/0 средняя, верхняя 
[Ac trans|Ci fib]
+16.5 +6.1 50 +16  1017.8  -0.3  757  287  +11         
09 28.04.11 090 (В) 10 км    5/4 1000 м средняя 
[Cu med, cong|Ac trans]
+21.2 +3.7 32 +21  1015.6  -2  755  282           
12 28.04.11 090 (В) 10 км    5/4 1000 м средняя 
[Cu med, cong|Ac trans]
+22.7 +2.3 26 +23  1013.6  -2  754  280           
15 28.04.11 120 (ЮВ) 10 км    8/1 1000 м верхняя 
[Cu hum|Ci]
+20.5 +4.5 35 +21  1012.5  -1.1  753  281           
18 28.04.11 090 (В) 10 км    8/0 верхняя 
[Ci]
+16.5 +6.1 50 +16  1013.5  0.9  754  285    +22.9       
21 28.04.11 090 (В) 10 км    8/0 верхняя 
[Ci]
+15.1 +6.8 58 +15  1013.1  -0.5  753  286           
00 29.04.11 080 (В) 10 км    4/0 верхняя 
[Ci fib]
+13.1 +5.7 61 +12  1012.2  -0.9  752  288           
03 29.04.11 070 (В) 10 км    8/0 средняя, верхняя 
[Ac lent|Ci]
+12.6 +4.8 59 +11  1012.1  -0.1  752  289           
06 29.04.11 070 (В) 10 км    9/0 средняя, верхняя 
[Ac trans|Ci fib]
+15.4 +5.6 52 +14  1012.2  0.1  752  286  +12.2         
09 29.04.11 090 (В) 10 км    10/0 средняя 
[Ac und]
+19.9 +1.6 30 +20  1011  -1  752  282           
12 29.04.11 110 (В) 10 км    10/0 средняя 
[Ac und]
+19.9 +2 30 +20  1009.9  -1.1  751  282           
15 29.04.11 110 (В) 10 км  слаб. ливневой дождь  10/4 1000 м кучево-дожд., средняя 
[Cb calv|Ac As]
+16.5 +5.2 47 +16  1010.2  0.2  751  285           
18 29.04.11 040 (СВ) 10 км  слаб. ливневой дождь  10/4 1000 м кучево-дожд., средняя 
[Cb calv|As op]
+15 +6.2 56 +15  1009.3  -0.9  750  286    +20.7  0.0     
21 29.04.11 080 (В) 10 км  {ливн. осадки}  9/3 1000 м кучево-дожд., средняя 
[Cb calv|Ac trans]
+15.2 +5.2 51 +15  1008.3  -0.9  750  285           
00 30.04.11 090 (В) 10 км  слаб. ливневой дождь  10/4 1000 м кучево-дожд., средняя 
[Cb calv|Ac und]
+12 +8.2 78 +11  1008.7  0.3  750  288           
03 30.04.11 080 (В) 10 км  слаб. ливневой дождь  10/5 1000 м кучево-дожд., средняя 
[Cb calv|Ac und]
+11.3 +9.4 88 +11  1007.9  -0.8  749  288           
06 30.04.11 090 (В) 10 км  слаб. ливневой дождь  10/5 1000 м кучево-дожд., средняя 
[Cb calv|Ac und]
+12.1 +9.4 84 +11  1007.9  749  287  +11.2       
09 30.04.11 100 (В) 10 км  {ливн. осадки}  9/4 600 м средняя 
[Cu med, cong|Ac trans]
+15.6 +10 69 +17  1007.4  -0.4  749  284           
12 30.04.11 150 (ЮВ) 10 км    10/5 600 м кучево-дожд., средняя 
[Cb calv|Ac und]
+16.3 +10 66 +18  1007.1  -0.3  749  283           
15 30.04.11 220 (ЮЗ) 10 км  {ливн. осадки}  10/8 930 м кучево-дожд., средняя 
[Cb calv|Ac und]
+14.7 +11.4 81 +18  1007  -0.1  749  284           
18 30.04.11 220 (ЮЗ) 2500 м  дымка{ливн. осадки}  10/10 240 м 
[Sc]
+13.2 +12.2 94 +18  1007.8  0.7  749  286    +16.3  0.4     
21 30.04.11 230 (ЮЗ) 3000 м  слаб. дождь  10/10 120 м 
[Sc]
+12.6 +11.7 94 +15  1008.2  0.4  749  286           
00 01.05.11 250 (З) 10 км  {дождь}  9/9 450 м 
[Sc]
+12 +10.5 91 +13  1008.5  0.3  750  287           
03 01.05.11 240 (ЮЗ) 4000 м  слаб. дождь  10/8 120 м средняя 
[Frnb|As op]
+11.7 +10.9 95 +13  1008.4  -0.1  750  288           
06 01.05.11 230 (ЮЗ) 1800 м  слаб. дождь  10/8 100 м средняя 
[Frnb|As op]
+11.6 +10.9 96 +13  1009  0.6  750  288  +11.4       
09 01.05.11 270 (З) 10 км  {дождь}  10/8 400 м средняя 
[Sc|Ac und]
+13.3 +10.4 83 +15  1010.5  1.5  751  287           
12 01.05.11 260 (З) 10 км  {дождь}  10/6 480 м средняя 
[Sc|Ac und]
+14.5 +11.4 82 +17  1010.4  -0.1  751  285           
15 01.05.11 260 (З) 10 км    4/3 300 м средняя 
[Sc|Ac trans]
+14.4 +11.1 81 +18  1010.7  0.3  751  286           
18 01.05.11 280 (З) 4000 м  дымка  8/0 средняя, верхняя 
[Ac trans|Ci fib]
+12.7 +10 84 +14  1011.7  752  288    +15.6  0.5     
21 01.05.11 290 (З) 4000 м  дымка  10/0 средняя 
[Ac und]
+12.1 +10.4 89 +14  1011.7  -0.1  752  288           
00 02.05.11 300 (СЗ) 4000 м  дымка  10/0 средняя 
[Ac und]
+12.3 +9.8 85 +13  1011.5  -0.2  752  288           
03 02.05.11 240 (ЮЗ) 4000 м  дымка  8/0 средняя 
[Ac trans]
+11 +9 87 +12  1011.7  0.1  752  290           
06 02.05.11 220 (ЮЗ) 10 км    3/0 средняя 
[Ac trans]
+14.9 +11.7 81 +18  1011.4  -0.1  752  285  +11         
Время (UTC), дата Ветер
(°,м/с) 
Видим.   Явления Облачность Т
(°С)
Тd
(°С)
f(%) Тe
(°С)
Pmin
(гПа)
dP
(гПа)
Po
(мм)
O2
(г/м3)
Тmin Tmax R s Состояние
почвы